{"data":{"norad_id":64616,"intl_designator":"2025-137Y","name":"STARLINK-34413","alt_names":[],"object_type":"PAYLOAD","status":"ACTIVE","operator":null,"country":"US","launch_date":"2025-06-25","launch_site_code":"AFETR","launch_vehicle":null,"mission":null,"orbit_class":"UNKNOWN","rcs_meters":null,"size_class":null,"mass_kg":null,"dimensions":null,"purposes":["comms"],"wikipedia_slug":null,"has_3d_model":false,"image_url":null,"decayed_at":null,"tle_current":{"epoch":"2026-09-20T23:12:14.273568Z","epoch_age_seconds":91294,"freshness":"FRESH","line1":"1 64616U 25137Y   26263.96683187  .00014086  00000+0  42713-3 0  9996","line2":"2 64616  53.1568 145.2863 0001256  87.1468 272.9678 15.34409169 70774","mean_motion":15.34409169,"eccentricity":0.0001256,"inclination_deg":53.1568,"raan_deg":145.2863,"arg_perigee_deg":87.1468,"mean_anomaly_deg":272.9678,"bstar":0.00042713,"rev_number":7077,"period_min":93.847197285615,"perigee_km":461.81678203122,"apogee_km":463.53519425384,"semimajor_km":6840.8129881425,"source":"CELESTRAK","updated_at":"2026-09-21T09:00:35.395693Z"}}}